Weather History for Garden City, KS

Change the Weather History Date:

Sunday, March 24, 2013

  Actual Average Record
Temperature  
Mean Temperature 24 °F 46 °F  
Max Temperature 35 °F 60 °F 83 °F (1967)
Min Temperature 12 °F 32 °F 10 °F (1965)
Degree Days  
Heating Degree Days 41 19  
Month to date heating degree days 511 537  
Since 1 July heating degree days 4412 4561  
Cooling Degree Days 0 0  
Month to date cooling degree days 0 0  
Year to date cooling degree days 0 0  
Moisture  
Dew Point 16 °F    
Average Humidity 65    
Maximum Humidity 92    
Minimum Humidity 38    
Precipitation  
Precipitation T in 0.05 in 1.84 in (1987)
Month to date precipitation 0.07 1.04  
Year to date precipitation 0.41 1.92  
Sea Level Pressure  
Sea Level Pressure 30.22 in    
Wind  
Wind Speed 14 mph (NNW)    
Max Wind Speed 30 mph    
Max Gust Speed 36 mph    
Visibility 8 miles    
Events Snow    
T = Trace of Precipitation, MM = Missing Value Source: NWS Daily Summary

Daily Weather History Graph

Daily Weather History Graph

Search for Another Location

Airport:

Trip Planner

Search our weather history database for the weather conditions in past years. The results will help you decide how hot, cold, wet, or windy it might be!

Date:

Astronomy

Mar. 24, 2013 Rise Set
Actual Time 7:39 AM CDT 7:58 PM CDT
Civil Twilight 7:13 AM CDT 8:25 PM CDT
Nautical Twilight 6:42 AM CDT 8:55 PM CDT
Astronomical Twilight 6:11 AM CDT 9:27 PM CDT
Moon 5:31 PM CDT (3/24) 5:48 AM CDT (3/24)
Length of Visible Light 13h 11m
Length of Day
12h 18m
Waxing Gibbous, 92% of the Moon is Illuminated
Mar 24
Waxing Gibbous
Mar 27
Full
Apr 2
Last Quarter
Apr 10
New
Apr 18
First Quarter

Hourly Weather History & Observations

Time (CDT) Temp. Windchill Dew Point Humidity Pressure Visibility Wind Dir Wind Speed Gust Speed Precip Events Conditions
12:30 AM 24.8 °F 9.3 °F 21.2 °F 86% 30.10 in 1.2 mi North 24.2 mph - 0.00 in Snow Snow
12:38 AM 24.8 °F 10.3 °F 21.2 °F 86% 30.10 in 1.5 mi North 20.7 mph - 0.00 in Snow Snow
12:54 AM 24.1 °F 10.1 °F 21.0 °F 88% 30.18 in 1.8 mi North 18.4 mph - 0.00 in Snow Snow
1:50 AM 23.0 °F 6.6 °F 19.4 °F 86% 30.12 in 2.5 mi North 25.3 mph 31.1 mph 0.00 in Snow Snow
1:54 AM 23.0 °F 6.6 °F 19.9 °F 88% 30.20 in 3.0 mi North 25.3 mph 31.1 mph 0.00 in Snow Snow
2:37 AM 23.0 °F 8.0 °F 19.4 °F 86% 30.12 in 2.5 mi North 20.7 mph - 0.00 in Snow Snow
2:44 AM 23.0 °F 8.3 °F 19.4 °F 86% 30.12 in 3.0 mi North 19.6 mph 26.5 mph 0.00 in Snow Snow
2:54 AM 23.0 °F 6.9 °F 19.0 °F 85% 30.21 in 2.5 mi North 24.2 mph 35.7 mph 0.00 in Snow Snow
3:05 AM 21.2 °F 4.9 °F 19.4 °F 93% 30.13 in 4.0 mi North 23.0 mph - 0.00 in Snow Snow
3:54 AM 21.9 °F 8.2 °F 19.0 °F 89% 30.20 in 9.0 mi North 16.1 mph - 0.00 in Snow Snow
4:54 AM 19.0 °F 5.0 °F 14.0 °F 81% 30.20 in 9.0 mi NNW 15.0 mph - 0.00 in Snow Snow
5:54 AM 16.0 °F 0.6 °F 10.9 °F 81% 30.22 in 9.0 mi NNW 16.1 mph - 0.00 in Snow Snow
6:54 AM 14.0 °F -0.2 °F 10.0 °F 84% 30.25 in 10.0 mi NW 12.7 mph - 0.00 in   Clear
7:54 AM 12.0 °F -2.0 °F 8.1 °F 84% 30.26 in 10.0 mi NNW 11.5 mph - N/A   Clear
8:54 AM 12.9 °F -1.6 °F 8.1 °F 81% 30.27 in 10.0 mi NNW 12.7 mph - N/A   Clear
9:54 AM 17.1 °F 3.0 °F 12.0 °F 81% 30.27 in 10.0 mi NNW 13.8 mph - N/A   Clear
10:54 AM 19.9 °F 7.3 °F 15.1 °F 81% 30.29 in 10.0 mi North 12.7 mph - N/A   Clear
11:54 AM 23.0 °F 11.1 °F 15.1 °F 72% 30.28 in 10.0 mi North 12.7 mph - 0.00 in   Clear
12:54 PM 25.0 °F 13.6 °F 18.0 °F 75% 30.27 in 10.0 mi North 12.7 mph - N/A   Clear
1:54 PM 28.0 °F 18.6 °F 19.9 °F 72% 30.25 in 10.0 mi NNW 10.4 mph - N/A   Clear
2:54 PM 30.9 °F 20.2 °F 21.0 °F 67% 30.22 in 10.0 mi North 15.0 mph 19.6 mph N/A   Clear
3:54 PM 33.1 °F 24.4 °F 19.9 °F 59% 30.20 in 10.0 mi NNW 11.5 mph - N/A   Clear
4:54 PM 35.1 °F 25.9 °F 12.9 °F 40% 30.20 in 10.0 mi North 13.8 mph - N/A   Clear
5:54 PM 34.0 °F 25.5 °F 12.0 °F 40% 30.21 in 10.0 mi North 11.5 mph - N/A   Clear
6:54 PM 33.1 °F 22.2 °F 10.9 °F 40% 30.21 in 10.0 mi North 17.3 mph - N/A   Clear
7:54 PM 28.9 °F 20.4 °F 14.0 °F 54% 30.23 in 10.0 mi North 9.2 mph - N/A   Clear
8:54 PM 25.0 °F 15.5 °F 17.1 °F 72% 30.27 in 10.0 mi North 9.2 mph - N/A   Clear
9:54 PM 25.0 °F 15.5 °F 17.1 °F 72% 30.28 in 10.0 mi North 9.2 mph - N/A   Clear
10:54 PM 24.1 °F 13.7 °F 17.1 °F 75% 30.30 in 10.0 mi NNW 10.4 mph - N/A   Clear
11:54 PM 25.0 °F 13.1 °F 18.0 °F 75% 30.31 in 10.0 mi NNW 13.8 mph - N/A   Clear